Location: Newark
(34.9500°N, 139.9667°E)
Time: 15:04:35
(UTC+00:00)

deb Explorer IX - Pass Details

Date: 16 December 2019
Orbit: 548 x 1101 km, 38.8° (Epoch: 17 January)

Event Time Altitude Azimuth Distance (km) Brightness Sun altitude
Rises 09:13:50 0° 289° (WNW) 3,390 ? -20.6°
Reaches altitude 10° 09:16:12 10° 288° (WNW) 2,535 ? -21.1°
Maximum altitude 09:22:22 78° 203° (SSW) 997 ? -22.3°
Enters shadow 09:25:44 32° 122° (ESE) 1,658 ? -23.0°
